Find Starlink 37913

NORAD ID: 100488 Int'l Des: 2026-196 Owner: SPXS Country: US Constellation: starlink operational

Aktuelle Ansicht

3D-Globus wird geladen...

About Starlink 37913

Starlink 37913 (NORAD 100488) is a starlink constellation satellite launched Aug 25, 2026 by SPXS of US. with a mass of 575.00 kg.

Nächste Überflüge

Passes for default location (London). Set your location on the main map for personalized predictions.

Höhenverlauf

Loading altitude history...

Zweizeiliger Elementsatz

1 A0488U 26196R 26258.60366998 .00142837 00000-0 74905-3 0 9997
2 A0488 53.1577 266.0850 0001205 136.4709 223.6408 15.79865557 4585
Epoch: 15. Sept. 2026 • Age: 120 hours

Aktueller Status

Höhe 331.0 km
Apogäum / Perigäum N/A
Geschwindigkeit 7.72 km/s
Subsatellitenpunkt 42.55°N, 65.42°E
Startdatum 25. Aug. 2026
Alter 26 days
Typ internet

Technische Details

Klassifizierung Payload
Masse 575.00 kg
Trockenmasse 530.00 kg
Länge 0.30 m
Spannweite 29.00 m
Form ? Box + pan
Hersteller SPXS
Bus-Typ Starlink V2MO
Phasenstatus In Orbit
Besitzer/Staat SPXS/US

Most Searched